Wind_Speed
60 59 59 58 57 57 56 56 55 55 54 53 52 50 49 48 46 45 45 45 45 46 47 48 50 50 51 51 51 52 54 54 55 56 56 57 58 58 58 58 58 58 57 56 57 59 60 62 64 65 65 65 65 65 66 67 68 69 70 71 73 75 77 80 82 85 87 88 89 90 90 89 87 83 79 76 74 73 73 72 71 69 66 62 59
57 56 56 55 54 54 53 53 53 52 52 51 50 49 48 47 45 45 45 45 46 47 48 49 50 50 50 50 51 53 53 54 55 56 56 57 58 59 60 60 59 57 56 56 58 59 60 63 65 66 66 66 66 66 66 67 68 69 70 72 74 76 78 81 83 86 88 89 90 90 90 89 86 81 78 75 73 72 72 72 71 69 66 63 59
54 53 53 52 52 51 51 51 51 50 50 49 48 48 47 46 45 45 45 46 47 48 48 49 49 49 50 51 52 53 53 54 56 56 57 58 59 61 61 59 57 56 56 57 58 59 61 64 65 67 67 66 66 66 67 68 68 69 71 73 75 77 79 82 85 87 88 90 91 91 90 87 84 80 77 74 72 70 70 71 70 68 66 63 59
51 51 51 51 50 49 49 49 49 49 48 47 47 47 46 45 45 45 45 46 47 47 47 47 48 49 50 51 51 52 53 54 56 56 57 59 61 61 60 58 56 57 57 58 59 60 62 64 66 67 67 67 67 67 68 68 68 69 71 74 76 78 81 83 86 88 89 92 92 92 89 86 82 79 75 73 71 70 70 70 69 67 65 64 60
50 49 50 50 49 48 48 48 47 47 47 46 46 45 45 45 44 44 45 46 46 46 46 47 48 49 49 49 50 52 53 54 55 56 58 61 62 61 59 57 58 58 59 59 60 61 63 65 67 68 68 67 67 67 68 68 69 70 72 75 77 80 83 85 87 89 91 93 93 92 88 84 80 78 75 72 70 69 69 70 69 66 65 65 62
49 49 49 49 48 47 47 46 46 46 45 45 45 45 44 44 44 44 44 44 44 45 46 47 47 47 48 49 51 51 52 54 55 57 60 61 60 59 59 59 59 59 59 60 61 62 64 66 67 68 68 68 68 68 69 69 70 71 73 76 79 82 85 88 90 91 93 94 93 91 87 82 79 76 74 71 69 68 67 67 68 67 65 65 62
48 48 48 47 47 46 46 45 45 44 44 44 44 43 43 43 43 42 42 43 44 44 45 46 47 47 49 50 50 51 52 54 56 59 61 60 59 59 60 60 59 59 60 61 62 64 65 67 68 69 68 68 68 69 69 69 71 72 75 78 81 84 87 90 92 94 95 94 93 89 85 81 78 75 73 71 69 68 65 64 65 65 65 65 62
47 47 46 46 46 45 44 44 44 44 43 43 43 42 41 41 42 42 42 43 43 43 44 45 45 47 48 49 50 52 53 54 56 59 61 60 60 61 61 61 61 61 61 62 63 65 66 67 68 69 69 69 70 69 69 70 72 74 77 80 83 86 89 91 93 95 95 94 91 87 83 80 77 74 72 70 69 67 65 63 62 62 62 63 62
46 46 46 45 45 44 44 43 43 43 42 41 41 40 40 41 42 42 42 42 42 43 43 44 44 46 47 49 51 53 53 55 57 60 61 62 62 62 62 62 62 62 63 64 65 66 67 68 68 69 69 69 70 70 70 71 73 76 79 82 85 88 91 92 94 95 95 93 89 85 82 79 76 72 70 68 67 65 63 62 61 61 61 62 61
46 45 45 44 44 43 43 43 42 41 40 39 39 39 40 41 42 41 41 41 41 40 40 41 43 44 46 50 53 54 54 58 60 61 63 63 63 63 63 63 63 63 64 65 65 66 66 67 68 68 69 69 69 70 71 73 75 78 81 84 87 89 92 93 95 96 94 91 86 82 79 77 74 70 68 67 66 64 62 60 59 60 60 60 59
46 45 44 44 44 43 43 42 41 40 39 39 39 39 40 40 39 39 41 41 39 38 38 40 42 45 49 53 55 56 57 60 62 62 63 63 64 64 64 64 64 64 65 65 65 65 66 66 67 67 68 69 69 71 72 74 77 79 82 85 88 90 92 94 95 94 91 87 83 79 77 75 72 69 66 65 64 62 61 59 58 58 58 58 55
46 45 45 45 44 43 42 41 40 39 39 39 40 39 38 38 38 40 42 43 42 41 42 43 46 49 52 55 56 57 57 59 60 61 62 63 64 65 64 64 65 65 65 65 65 65 65 66 66 67 68 69 70 71 73 75 78 80 83 86 88 90 92 93 93 91 87 83 79 77 75 72 70 67 65 63 62 60 59 58 57 57 57 56 53
47 46 46 44 43 42 41 41 40 40 40 40 40 39 38 39 41 43 43 43 43 43 43 45 48 49 51 54 56 56 56 57 58 59 61 62 63 63 63 64 65 65 65 65 65 65 65 65 66 67 68 69 71 72 74 76 79 82 84 86 89 91 92 92 90 86 82 79 76 74 72 70 68 66 64 62 60 58 56 55 56 56 56 55 53
47 46 46 44 43 42 41 41 41 41 41 41 41 41 41 41 42 43 43 43 43 44 45 46 48 49 51 53 55 56 57 57 58 59 60 61 62 62 62 63 64 64 64 64 64 64 64 65 66 67 69 70 72 73 75 78 80 83 85 88 90 91 91 89 86 81 78 75 73 71 70 68 66 65 63 61 58 55 52 51 53 55 56 56 54
47 46 45 44 43 42 42 42 42 42 42 42 42 42 42 42 43 43 43 43 44 45 46 47 49 50 51 53 54 56 57 58 58 59 60 61 61 62 63 63 64 64 64 64 64 64 65 66 67 68 70 71 73 75 77 80 82 84 86 88 90 89 88 85 81 77 75 72 70 69 67 66 66 64 63 60 56 52 50 51 53 54 55 55 55
48 46 44 43 43 43 43 43 43 43 43 42 42 42 43 43 42 42 43 44 44 45 46 47 49 51 52 53 55 56 57 58 58 59 60 61 62 63 63 64 64 64 64 64 64 64 65 67 68 69 71 72 75 77 79 82 84 86 88 89 89 87 85 81 77 75 72 71 69 68 66 66 66 65 63 60 56 52 52 53 53 53 52 52 53
48 46 44 43 44 44 45 44 44 44 44 43 43 43 43 43 43 42 44 45 45 46 47 49 50 51 53 54 55 57 57 58 58 59 60 61 62 63 64 64 64 64 64 64 64 65 66 67 69 70 72 74 77 79 81 84 85 87 89 89 87 84 81 77 75 72 70 69 68 66 66 67 67 66 64 62 58 54 52 51 51 50 49 48 48
47 45 44 44 45 45 45 45 45 45 44 44 44 44 44 44 44 44 45 46 46 47 49 50 51 53 54 55 56 57 57 58 59 59 60 61 62 63 64 64 64 64 64 64 65 66 67 69 70 72 74 76 79 81 83 85 87 88 88 86 83 80 77 74 72 70 69 68 67 66 67 68 68 67 66 63 59 54 51 49 48 48 47 45 45
47 45 45 45 46 46 46 46 46 45 45 44 44 44 44 45 45 46 46 47 47 49 50 51 52 54 55 55 56 57 58 58 59 60 61 62 63 63 64 64 64 64 65 65 66 67 69 70 72 74 76 78 81 83 85 87 88 88 86 83 79 76 74 71 69 68 67 66 65 65 66 66 66 65 64 61 58 55 52 48 46 46 44 43 43
47 46 46 46 47 47 47 47 46 46 45 45 44 44 45 46 46 46 47 47 48 50 51 52 53 55 55 55 57 58 58 59 59 60 61 62 63 63 64 64 64 65 66 67 68 69 70 72 74 76 78 80 82 84 86 87 87 85 82 78 76 73 71 69 67 65 65 64 62 63 63 63 63 62 61 59 57 55 53 49 46 45 43 42 42
47 46 47 47 47 48 47 47 47 46 45 44 44 44 45 47 47 47 48 48 49 50 52 53 54 54 55 56 57 59 59 59 60 61 61 62 63 63 64 65 65 66 67 68 69 70 72 73 75 77 79 81 84 86 87 87 85 81 78 75 72 70 68 66 64 64 63 62 61 61 61 61 61 60 59 58 56 55 53 50 47 45 43 40 39
47 47 47 47 48 48 48 48 47 46 45 45 44 45 46 47 48 48 49 49 49 51 53 55 55 55 55 56 58 60 60 59 60 61 62 62 63 63 64 65 66 67 68 69 70 71 73 75 76 78 80 83 85 87 87 85 81 77 74 71 69 67 65 63 62 62 61 60 60 59 59 59 59 58 56 56 56 55 54 51 48 46 44 41 38
47 47 48 48 48 49 49 49 48 46 46 45 45 46 47 47 48 49 50 50 50 51 54 55 55 55 55 56 58 60 61 60 61 62 62 63 63 64 64 66 67 68 69 70 71 72 74 76 77 79 81 84 86 86 84 81 77 74 71 68 66 65 63 61 60 60 59 59 59 58 57 57 57 56 55 54 54 54 53 50 48 46 45 43 40
47 48 48 49 49 50 50 49 48 47 46 46 46 47 47 48 49 49 50 51 51 51 53 54 55 55 56 57 59 60 61 61 62 62 63 63 64 64 65 66 67 69 70 71 72 73 75 77 78 80 83 85 85 84 80 76 73 71 68 65 64 62 60 59 59 58 58 58 58 56 56 55 55 54 53 52 52 52 52 50 47 46 46 45 41
48 48 49 50 51 51 50 49 48 47 46 46 47 48 48 48 49 49 50 51 51 52 53 54 55 56 57 58 59 59 60 61 62 63 63 64 65 65 66 67 69 70 71 72 73 75 76 78 79 82 84 84 83 80 76 73 70 67 64 62 60 59 58 57 57 57 57 57 56 54 54 53 53 52 51 50 50 50 50 49 46 45 46 46 45
48 48 50 51 52 51 49 49 49 48 47 48 48 49 49 48 49 50 51 51 52 53 54 55 55 57 58 59 59 60 61 62 63 63 64 64 65 66 68 69 70 70 71 73 74 76 77 79 81 83 83 82 79 75 72 69 66 64 61 59 58 57 56 56 56 56 57 56 54 52 52 51 51 51 50 48 48 49 48 47 44 42 42 45 45
48 49 51 52 52 50 49 49 49 48 48 49 50 50 49 49 50 51 51 52 54 54 54 55 56 57 58 59 60 60 61 62 63 64 64 65 66 67 68 70 70 71 73 74 75 77 78 80 82 82 81 78 75 71 68 65 63 60 58 56 55 55 54 54 55 56 55 54 52 50 49 49 49 49 48 48 47 47 46 45 43 40 39 41 43
48 50 52 52 51 50 49 49 49 49 50 50 50 50 49 49 50 52 53 54 55 55 55 56 57 59 59 60 61 61 62 62 63 64 65 66 67 68 69 70 71 72 74 75 76 78 79 81 81 80 78 75 71 68 65 62 60 57 55 54 53 52 52 53 54 55 53 51 49 48 47 47 48 48 47 47 46 46 44 43 42 40 37 37 38
50 52 53 52 51 50 49 49 50 51 52 52 51 51 50 51 52 54 55 56 56 56 57 58 59 60 60 61 61 62 62 63 64 65 65 66 67 69 70 71 72 73 74 76 77 79 80 81 80 77 75 71 68 64 61 59 57 54 53 52 51 51 52 53 53 53 51 49 48 46 45 46 47 46 45 45 46 45 44 42 41 39 37 35 36
52 53 53 51 50 50 50 51 52 53 54 54 53 52 52 53 54 55 56 56 57 57 58 59 60 61 61 61 62 63 63 64 65 66 66 66 68 69 70 71 72 73 75 77 78 80 80 79 77 74 72 68 64 60 58 57 54 52 51 50 50 50 52 53 53 52 50 48 46 45 43 44 46 45 44 44 44 44 43 42 40 38 36 34 33
52 53 52 51 51 51 51 53 54 55 55 55 54 54 53 54 55 55 56 57 58 59 60 61 61 61 61 61 62 63 64 64 65 66 66 67 68 70 70 71 73 74 76 77 79 79 78 76 74 72 69 65 61 58 56 55 53 51 49 48 49 50 52 53 52 51 49 47 45 43 43 44 45 44 43 42 43 43 42 41 39 37 34 32 31
53 54 53 52 52 53 53 54 55 55 55 55 55 55 54 55 56 56 57 59 59 60 61 62 62 61 61 62 63 64 64 65 65 66 67 68 69 70 70 71 73 74 76 78 79 78 75 73 70 69 66 63 59 57 55 54 52 50 48 48 49 50 52 53 52 49 48 46 44 43 42 43 44 44 42 41 40 41 41 40 38 36 33 32 31
55 55 55 54 54 54 55 55 56 56 56 55 55 55 55 56 57 58 59 60 61 61 62 62 62 62 62 62 64 65 65 65 66 67 68 69 70 70 71 72 73 75 77 78 77 75 72 69 68 66 63 60 58 56 55 54 52 50 48 48 49 50 51 51 50 48 46 45 44 42 41 41 42 42 41 40 39 39 39 39 37 35 33 32 31
56 56 56 55 55 55 56 56 56 56 56 56 56 56 57 58 59 60 61 61 62 62 63 63 63 62 62 63 64 65 65 66 67 68 68 69 70 71 72 73 74 76 77 76 74 71 69 67 64 63 61 59 57 56 55 54 53 51 49 48 49 50 50 50 49 47 45 44 43 42 40 40 41 40 39 39 38 37 37 37 36 35 33 31 30
56 56 56 56 56 56 57 57 56 56 57 57 57 58 59 59 60 61 62 62 62 63 63 63 63 62 62 63 64 65 66 67 68 68 69 70 71 72 73 74 75 76 75 73 71 69 66 64 62 61 59 57 56 55 54 53 52 51 50 49 49 49 49 48 47 46 45 44 43 41 40 40 40 40 39 38 37 36 35 36 35 34 32 30 29
56 56 56 56 56 56 57 57 57 57 58 58 59 59 60 61 61 62 62 63 63 63 63 62 62 63 63 64 64 65 67 68 68 69 70 70 71 72 74 75 75 74 72 70 68 66 64 61 60 59 58 55 54 55 54 53 52 51 49 48 48 48 47 47 46 45 44 43 42 41 40 39 39 39 39 39 37 36 35 35 35 34 32 31 29
56 55 56 56 56 56 56 57 57 58 58 59 59 60 61 62 62 62 63 63 63 63 62 62 63 63 64 64 65 66 67 68 69 70 71 71 72 73 74 74 73 71 69 68 66 64 61 59 59 58 56 54 53 54 53 52 51 50 49 48 47 47 46 45 45 44 43 43 42 40 39 38 39 39 39 39 38 36 35 34 34 34 32 31 30
54 54 55 55 55 56 56 57 58 58 59 60 60 61 62 62 63 63 63 63 63 62 62 61 62 64 65 65 66 67 68 68 69 70 71 72 73 74 73 72 70 69 67 66 64 61 59 58 58 57 55 52 52 53 53 51 50 50 48 47 47 46 45 44 44 44 43 43 42 40 38 38 39 39 39 38 38 37 34 33 34 34 33 31 30
53 54 55 55 56 56 57 58 58 59 60 61 61 62 62 63 63 63 63 62 62 62 62 61 62 64 65 66 67 68 68 68 70 71 72 73 74 73 71 69 67 67 66 64 62 60 58 57 57 56 53 51 51 52 51 50 50 49 48 46 46 45 44 43 43 43 43 43 41 39 37 37 38 39 39 38 38 37 35 33 33 34 33 31 30
54 54 55 56 56 57 57 58 59 60 61 61 62 62 63 64 64 63 62 62 62 62 62 62 63 65 65 66 68 68 68 69 71 72 73 74 73 71 69 67 66 65 63 62 60 59 58 57 56 54 51 50 50 51 50 49 49 49 47 45 44 44 43 43 43 43 43 43 41 38 36 35 37 39 39 38 37 37 35 33 33 33 33 32 30
54 54 55 56 56 57 58 59 60 61 61 62 63 63 64 64 63 62 62 61 62 63 63 63 64 65 66 67 68 68 68 70 72 73 73 73 71 69 67 66 65 63 61 59 58 58 58 57 55 51 49 48 49 49 48 48 49 49 46 44 43 43 42 42 42 43 43 43 41 38 36 35 36 38 39 38 38 37 35 34 32 32 32 32 30
54 55 55 56 57 58 59 60 61 62 63 64 64 64 63 62 61 61 61 61 62 64 64 64 64 65 66 68 69 69 69 71 73 72 72 70 69 68 67 65 63 60 58 57 57 57 57 56 54 50 47 47 47 47 47 47 48 48 46 44 43 43 41 41 42 43 43 43 41 39 37 35 35 37 38 39 39 38 37 35 34 33 31 30 29
56 56 56 57 58 59 60 62 63 63 64 65 64 62 61 60 60 60 61 62 63 64 64 64 65 65 67 68 70 70 71 72 72 71 69 68 68 67 66 62 59 58 57 57 57 57 56 55 52 49 46 46 46 46 46 46 47 47 45 43 43 42 41 41 41 42 43 43 41 39 37 36 36 37 38 39 39 38 37 35 34 32 31 29 27
57 57 58 59 60 61 62 63 63 63 63 63 62 61 60 60 60 61 62 63 63 64 64 65 65 66 67 70 71 71 72 72 71 69 69 68 67 65 63 59 57 57 56 56 56 55 54 53 51 49 47 45 45 45 46 46 47 46 44 42 42 42 41 41 42 43 43 42 41 39 38 37 37 37 38 39 39 39 38 36 34 33 31 29 27
58 59 60 60 61 62 62 62 61 61 60 60 60 60 60 61 61 62 63 64 64 63 64 64 65 67 69 71 72 72 71 71 70 69 68 67 65 62 60 58 57 56 55 54 53 52 51 51 50 48 47 45 45 45 45 46 46 44 43 42 42 41 41 41 43 43 43 42 40 39 39 38 38 38 39 39 39 38 37 36 34 32 31 29 27
60 60 61 61 60 60 59 59 58 58 58 59 59 60 61 62 62 63 64 64 64 64 64 65 66 68 70 71 71 70 70 70 69 69 67 64 61 59 57 56 55 54 53 51 50 49 48 48 47 47 46 45 45 44 45 45 44 43 41 41 41 41 41 41 43 43 43 42 40 40 39 39 39 40 40 40 39 38 36 34 33 31 29 28 26
60 60 59 58 57 56 56 56 57 58 59 59 60 61 62 62 62 62 63 64 64 64 65 66 67 68 69 70 70 69 69 69 69 67 64 60 58 57 55 54 53 52 50 49 47 46 45 45 45 45 44 44 44 44 44 44 43 41 40 40 40 41 41 42 42 42 42 42 41 41 41 40 40 40 40 40 39 37 36 34 32 30 29 27 25
57 57 56 55 55 55 55 57 58 59 59 60 60 61 62 62 62 61 62 64 64 65 66 68 68 68 68 68 68 68 68 67 66 63 60 58 57 56 54 51 49 49 48 46 44 43 43 43 43 42 42 43 43 43 43 42 41 40 40 40 40 41 41 41 41 41 41 42 42 42 42 41 41 41 41 39 37 36 35 33 30 29 27 26 25
55 55 55 55 55 55 56 58 59 59 59 60 60 60 61 62 62 62 62 64 65 66 67 68 68 68 68 67 67 67 67 65 62 59 57 56 55 54 52 50 48 46 45 43 42 41 42 42 41 41 41 41 42 42 42 41 40 40 40 40 41 41 41 41 41 41 42 42 42 42 42 42 43 42 40 38 36 35 33 31 29 27 25 24 23
56 56 56 56 56 57 57 59 59 59 59 59 60 60 60 62 63 63 63 65 66 67 67 67 67 67 66 66 65 65 64 61 58 56 55 54 52 51 50 48 46 45 44 42 41 41 41 41 40 40 41 41 41 41 40 40 40 40 40 41 41 41 42 42 42 42 43 43 43 43 42 42 42 41 39 37 35 33 32 30 27 25 24 23 22
57 58 58 58 58 58 58 58 58 58 58 59 60 60 61 62 63 64 65 66 67 67 67 66 66 65 65 64 63 63 61 57 55 54 54 52 50 48 47 46 45 44 43 42 41 41 40 40 40 40 40 40 40 40 40 40 40 40 41 41 41 42 42 43 43 44 44 44 43 43 43 42 41 40 38 36 34 32 31 29 26 24 23 22 21
Wind_Direction
270 272 272 273 274 275 275 276 277 278 279 280 281 281 282 283 285 286 287 288 289 290 291 292 294 295 296 298 299 299 299 300 301 302 302 304 304 305 307 308 308 309 309 309 308 309 311 312 313 314 315 315 315 315 314 315 316 317 317 318 318 319 320 321 321 321 322 323 323 324 325 325 325 325 324 323 322 321 319 318 317 317 315 314 313
270 271 272 272 273 274 275 276 276 277 278 279 280 280 281 283 285 286 287 288 289 290 292 293 294 296 297 298 299 299 299 300 301 302 303 304 305 306 307 308 309 309 309 309 310 311 312 313 313 313 314 314 315 314 314 315 316 317 317 318 318 319 320 320 321 321 322 323 324 325 325 326 326 324 323 323 322 321 320 319 318 317 316 315 315
269 270 271 271 272 273 274 274 275 276 277 278 279 280 282 283 284 285 286 288 289 291 292 293 295 297 298 298 298 298 299 300 302 302 303 304 305 305 307 309 309 310 310 311 312 312 312 312 312 312 313 314 314 314 314 316 316 316 317 318 318 319 319 320 320 321 323 324 324 325 326 326 325 324 323 323 323 322 321 320 319 318 318 317 317
268 269 269 270 270 271 272 273 274 275 277 278 279 281 282 283 284 285 286 288 290 291 292 294 296 296 296 297 297 297 299 300 301 301 302 303 304 306 308 310 310 311 312 312 312 312 312 311 311 311 313 314 314 314 315 316 316 316 317 318 318 319 319 319 320 322 323 324 325 325 326 326 325 324 324 324 324 323 323 321 320 320 319 318 319
266 267 267 268 269 270 271 273 274 276 277 278 279 280 281 283 284 285 286 288 289 291 293 294 295 295 296 296 296 297 298 299 300 300 301 302 304 307 310 311 312 312 312 311 311 311 310 310 310 311 313 314 314 314 315 315 316 316 317 317 318 318 319 320 322 323 324 324 325 325 326 325 325 324 324 325 325 325 325 323 321 321 321 320 320
265 266 267 269 270 271 273 274 275 276 277 278 279 280 281 283 284 285 286 287 289 291 293 294 294 294 294 294 295 297 298 299 299 299 300 302 305 308 310 312 312 311 310 310 310 310 309 309 310 311 313 313 314 315 315 315 316 316 317 317 318 319 320 321 323 324 324 324 325 325 325 325 325 325 325 326 326 326 325 324 322 322 322 320 320
265 267 268 270 271 272 273 274 275 275 276 277 279 280 282 283 284 285 286 288 290 292 292 293 293 293 293 294 295 297 298 299 298 297 300 304 306 309 311 311 310 310 309 310 310 309 309 309 310 312 313 314 314 314 315 315 315 316 317 317 319 320 321 322 323 324 324 324 325 325 325 324 325 326 326 326 327 326 326 325 323 322 321 319 320
266 268 269 271 272 272 273 274 274 274 275 277 278 280 282 283 284 285 287 289 291 291 291 292 291 291 292 293 294 296 298 298 297 297 301 306 308 309 310 310 310 310 310 310 309 309 309 309 310 312 313 314 314 314 315 315 316 317 318 319 320 321 322 322 323 323 323 324 325 325 324 324 325 326 326 326 327 327 326 325 323 321 320 319 320
266 268 270 271 272 272 272 272 272 274 275 276 278 280 282 283 284 287 289 290 291 291 291 291 291 291 292 291 293 296 298 297 297 298 303 306 308 308 309 309 309 309 309 309 309 308 308 309 310 312 313 313 314 314 315 316 317 318 319 320 321 321 321 322 322 322 323 324 325 325 324 324 325 326 326 327 327 327 326 325 323 322 321 321 322
266 267 269 270 271 271 270 270 272 274 275 277 278 280 282 284 287 289 289 289 289 290 290 290 290 291 289 290 293 296 295 295 297 300 303 305 307 307 307 308 308 308 308 307 307 308 308 309 311 313 313 313 314 315 316 317 318 319 319 320 320 320 321 322 322 322 322 324 324 324 323 323 324 325 326 327 327 327 326 325 324 323 323 323 323
264 266 268 268 269 269 269 270 272 274 275 276 278 281 285 287 287 287 287 285 284 283 282 283 283 284 286 289 292 293 292 294 298 300 302 304 305 305 306 307 307 306 306 306 307 307 308 310 312 313 313 313 314 315 316 317 318 318 319 319 319 320 320 321 321 321 322 323 323 323 322 323 324 325 327 328 327 327 327 326 325 324 323 322 321
263 264 265 266 267 268 269 271 272 273 275 277 279 282 284 281 279 280 281 281 280 280 281 280 280 282 286 289 291 292 293 295 298 300 301 302 303 304 304 305 304 304 305 306 307 308 310 311 312 313 313 313 314 315 316 317 317 317 318 318 318 319 320 320 320 321 322 322 322 322 322 323 324 325 327 328 328 328 328 328 327 325 323 321 322
261 263 264 266 267 268 269 271 272 274 276 278 281 281 280 277 277 279 280 281 282 284 285 284 284 287 288 289 291 294 296 296 297 299 299 300 301 302 303 303 303 304 305 306 308 309 310 312 312 312 313 313 314 315 316 316 316 317 317 318 318 319 319 319 320 321 322 322 321 321 321 323 324 325 327 329 328 329 329 329 328 326 324 324 324
261 262 264 266 266 267 269 271 273 275 277 279 280 280 280 280 281 282 283 285 286 287 288 287 289 290 291 292 293 295 296 297 298 299 300 301 302 302 303 303 304 305 306 307 308 309 311 311 312 312 312 312 314 315 315 316 316 317 317 318 318 318 318 318 319 320 321 320 320 321 322 323 324 326 328 329 329 329 330 330 330 329 328 326 326
260 261 263 265 267 268 269 271 273 275 277 278 279 280 281 282 283 283 285 286 287 288 289 290 291 292 293 293 294 295 296 297 298 300 301 302 303 303 304 304 305 306 307 308 308 310 310 311 311 311 312 313 314 315 315 316 316 317 317 317 318 318 318 318 319 320 320 320 320 321 323 324 325 327 328 328 329 330 333 334 333 331 330 328 327
259 261 263 265 266 268 269 271 273 274 276 277 279 281 282 283 283 283 285 287 288 289 290 291 292 293 294 295 295 295 296 298 299 300 302 303 304 304 304 305 305 306 307 308 308 309 310 310 310 311 312 312 314 315 315 316 316 317 317 317 317 318 318 318 320 320 320 320 322 323 325 326 326 327 328 329 331 335 339 339 335 332 331 330 328
259 261 262 263 265 267 269 271 273 274 276 278 280 281 282 283 283 283 285 287 289 289 290 291 293 294 295 295 295 296 297 298 299 301 302 303 303 304 304 305 305 306 307 308 308 308 309 310 310 311 312 313 314 315 315 316 316 317 317 317 317 317 318 319 320 320 320 321 323 326 327 327 327 328 330 332 334 338 341 339 335 332 331 330 328
259 260 261 262 264 266 268 270 272 274 277 279 280 281 282 283 283 284 286 288 288 289 290 292 293 294 295 295 295 296 297 299 300 301 302 303 303 304 304 305 305 306 307 307 307 308 308 309 310 311 311 313 314 315 315 316 316 317 317 317 317 317 318 319 320 321 321 323 326 328 328 327 328 329 330 331 333 337 340 338 335 332 331 331 330
259 259 260 262 263 265 268 270 272 275 277 278 280 281 282 283 284 285 286 287 288 289 291 292 294 294 295 295 296 296 298 299 300 302 302 303 303 304 304 305 305 306 306 306 307 308 308 309 310 311 312 313 314 314 315 316 316 317 317 317 317 318 319 320 321 321 322 325 328 329 328 327 327 328 328 329 333 336 338 338 336 334 332 333 333
258 258 259 261 263 265 268 270 272 274 276 278 279 281 282 283 284 286 287 287 288 289 290 292 293 294 295 296 296 297 298 300 301 301 302 302 303 304 304 305 305 305 305 306 307 308 308 309 310 311 312 313 314 314 315 316 317 317 317 317 317 318 319 320 321 321 323 326 328 328 326 325 326 327 328 330 333 335 337 338 337 335 334 337 336
257 257 259 261 263 265 267 269 271 273 275 277 279 280 282 283 285 286 286 287 288 289 290 292 294 295 296 296 296 297 299 300 301 301 302 302 303 304 304 304 304 304 305 306 307 308 309 310 310 311 312 313 314 314 315 316 317 316 316 317 317 318 319 320 321 322 323 326 328 327 325 325 326 327 329 331 334 336 337 338 337 336 336 338 339
257 257 258 260 263 264 266 268 270 272 275 276 278 280 282 284 286 286 286 287 288 289 291 293 295 295 295 296 296 297 299 300 300 301 301 302 303 303 303 303 304 305 306 307 308 308 309 310 311 312 312 313 314 315 315 316 316 316 316 317 317 317 318 319 320 322 324 327 327 326 326 326 327 328 329 332 335 336 337 338 338 337 337 338 341
257 257 258 260 262 263 265 267 269 271 274 276 279 282 283 285 285 285 285 286 287 289 291 293 293 294 294 295 297 298 299 300 300 300 301 302 302 303 303 303 304 305 306 307 308 309 309 310 311 312 313 313 314 315 315 315 316 316 316 316 316 317 318 319 321 323 325 326 327 327 327 326 326 327 330 334 336 336 337 338 339 338 337 338 341
257 257 258 260 262 263 264 267 269 271 274 277 280 282 283 284 283 283 284 286 288 290 291 291 292 293 295 296 296 297 298 299 299 300 301 302 302 303 303 304 305 306 307 308 308 309 310 311 311 312 313 314 314 315 315 315 316 316 316 316 317 317 318 319 321 323 325 327 327 327 326 326 326 328 332 335 336 335 337 338 340 340 338 338 340
256 257 259 260 261 263 265 267 269 271 275 278 280 281 283 284 283 283 284 286 288 290 291 292 293 294 295 296 296 297 297 298 299 300 301 301 302 303 304 304 305 306 307 308 308 309 310 311 312 312 313 314 314 314 315 315 315 315 315 316 316 317 318 320 322 324 325 326 326 326 326 326 327 329 332 335 336 336 337 339 341 342 340 339 340
255 256 258 259 261 263 265 267 269 273 276 278 280 282 284 284 284 283 284 286 288 291 292 293 293 294 295 295 295 296 297 298 299 299 300 301 302 303 304 305 306 307 307 307 308 309 310 311 312 312 313 313 314 314 315 315 315 315 315 316 317 317 319 321 323 324 325 325 326 326 326 326 326 329 332 335 336 336 337 338 341 343 342 341 340
254 256 257 259 261 263 265 268 271 274 277 279 281 282 283 283 283 283 284 286 289 291 292 293 294 294 295 295 296 296 297 298 298 299 300 301 302 303 304 305 306 307 307 307 308 309 310 311 312 312 312 313 314 315 315 315 315 315 316 316 317 318 319 321 322 323 324 325 326 326 326 325 326 329 333 335 336 336 337 338 340 343 344 343 342
255 256 257 259 261 264 266 269 272 275 277 279 281 282 282 282 282 283 285 287 290 292 293 294 294 295 296 296 297 297 297 298 298 299 300 302 303 304 305 305 306 306 306 307 308 309 310 311 312 312 312 313 314 315 315 315 315 315 316 316 317 318 319 320 321 322 323 324 325 326 326 325 326 329 333 335 335 335 337 339 340 342 344 344 344
254 256 257 260 263 265 267 270 272 274 276 278 280 281 281 282 283 284 286 288 290 292 293 294 295 296 296 297 297 297 297 297 298 299 302 304 305 305 305 305 305 306 306 307 308 310 311 311 311 311 312 313 315 315 315 315 315 316 316 316 317 318 319 320 321 321 322 323 325 326 326 326 326 329 333 334 334 335 337 339 341 341 342 344 346
254 256 258 261 263 265 267 269 271 273 276 278 279 281 282 283 284 285 287 289 291 292 294 295 295 296 297 297 296 296 296 297 299 301 303 305 304 304 304 304 305 306 307 308 309 310 310 311 311 311 312 313 314 314 314 314 316 316 316 316 317 318 318 319 320 321 322 324 326 327 328 327 326 329 332 334 335 335 336 338 340 340 341 343 346
255 257 260 262 263 265 267 269 271 273 276 278 280 282 283 284 284 285 287 289 291 292 294 295 296 297 296 296 295 295 297 298 300 302 304 304 303 303 303 304 305 306 307 308 309 310 310 310 311 311 311 312 313 313 313 314 315 316 316 317 317 318 318 319 320 321 322 324 326 328 328 327 326 328 332 335 335 335 335 337 339 339 340 342 345
256 258 260 262 263 265 266 268 271 274 277 280 282 283 283 283 284 286 288 289 291 293 294 296 296 295 295 295 295 296 298 299 301 302 303 302 302 302 303 304 305 306 307 308 309 309 310 310 310 310 310 312 312 312 313 314 314 315 316 317 318 318 318 318 319 320 322 324 326 328 329 327 326 328 331 333 334 334 334 336 337 338 339 342 344
256 258 260 261 263 265 267 269 272 275 278 280 281 281 281 282 284 286 287 289 291 293 295 295 295 294 294 295 296 297 298 300 301 302 302 302 302 302 304 305 305 306 307 308 308 309 309 309 309 308 309 311 311 311 312 313 313 314 316 317 317 317 317 317 318 320 322 324 326 328 329 327 325 326 329 332 334 334 334 334 335 338 340 342 344
257 258 260 262 263 265 268 270 274 276 278 279 279 279 280 282 284 286 288 290 292 294 294 294 294 294 295 295 296 297 298 300 300 301 301 301 302 303 304 305 305 306 307 307 307 308 308 308 307 307 308 309 310 310 311 311 312 314 316 317 316 316 316 316 317 319 322 324 326 328 329 326 324 325 328 331 333 332 332 333 336 338 340 341 343
257 259 261 263 265 267 270 272 275 277 277 277 278 280 281 283 285 287 289 292 293 293 294 294 294 294 294 295 296 297 298 299 300 300 301 301 302 303 304 305 305 306 306 306 306 307 307 306 306 306 307 308 308 308 309 311 312 313 315 316 315 315 315 315 317 319 322 324 326 328 328 326 324 324 327 330 331 332 333 335 336 337 338 340 343
258 260 263 265 267 269 272 274 275 276 277 278 279 281 283 284 287 289 291 292 293 293 293 293 293 293 294 295 296 297 298 299 299 300 300 301 302 302 303 304 305 305 305 305 305 306 306 305 305 305 306 307 307 307 308 310 311 312 314 315 315 314 315 315 316 319 321 324 325 328 328 326 323 323 326 329 331 333 334 334 335 336 337 339 341
259 261 263 265 268 270 272 274 275 276 277 278 280 281 283 286 288 289 290 291 291 291 291 291 292 293 294 295 297 298 298 298 299 300 300 301 301 302 303 304 305 305 304 304 305 305 304 304 304 304 305 306 305 305 307 309 310 311 313 314 314 313 314 314 316 318 321 323 325 327 328 326 323 323 326 328 330 332 333 333 333 335 337 338 338
259 261 263 265 267 269 271 272 274 275 277 278 280 282 284 286 288 289 289 290 289 289 290 291 292 293 295 296 297 297 297 298 299 299 299 300 301 302 303 304 304 304 303 303 304 303 303 302 302 303 304 304 303 304 306 308 309 310 312 313 313 312 313 314 316 319 321 322 324 327 328 326 322 322 325 327 327 329 331 332 333 333 335 336 336
260 261 263 266 267 269 271 272 274 275 277 279 281 283 285 286 287 288 288 288 288 288 290 291 293 294 295 296 296 296 297 298 298 298 299 300 301 302 303 303 303 302 302 302 302 302 301 301 301 302 303 303 302 303 305 307 307 309 311 312 311 312 313 314 316 318 320 320 322 326 328 325 321 321 323 325 326 327 329 332 332 331 332 333 334
261 263 265 267 268 270 271 272 274 276 278 280 282 283 284 285 286 286 286 287 288 289 291 292 293 294 295 295 295 296 297 297 297 298 300 301 302 302 303 302 302 301 300 299 299 299 299 299 300 301 302 301 300 301 303 305 305 307 310 311 311 311 312 313 315 317 318 318 321 325 327 325 321 320 321 324 324 325 327 330 330 329 329 330 331
263 264 266 267 269 270 271 273 275 277 279 280 281 282 283 284 285 285 286 287 289 290 291 292 293 294 294 294 295 296 297 297 298 300 301 301 302 302 302 301 300 299 298 297 297 297 297 297 299 301 300 299 298 300 302 303 303 306 309 310 310 310 311 313 314 315 316 316 319 323 325 324 320 319 320 322 322 323 325 327 327 327 327 328 329
263 264 266 267 269 270 272 274 276 277 278 280 281 282 283 283 284 285 287 288 289 290 291 292 293 294 294 294 295 296 297 298 299 300 300 300 301 301 301 300 298 297 295 295 294 294 295 296 298 299 299 297 297 299 300 301 302 305 308 310 309 309 310 312 313 313 313 315 318 322 323 322 320 318 319 320 320 322 323 325 326 326 326 327 327
264 265 267 268 270 271 273 275 276 278 279 280 281 281 282 283 284 285 287 288 289 290 291 292 293 294 294 294 295 297 298 298 299 299 300 301 301 301 300 298 297 295 294 293 292 292 293 295 297 298 297 296 297 298 299 301 302 305 308 309 308 308 309 310 310 311 311 313 317 320 321 320 319 318 317 318 319 320 321 323 323 324 324 325 325
265 267 268 269 271 273 274 275 277 278 279 280 281 281 282 283 285 286 287 288 289 290 291 292 293 294 294 295 296 297 298 299 300 301 302 302 302 300 298 297 295 293 292 291 291 291 292 294 296 297 297 296 297 298 299 300 301 304 306 307 306 306 307 308 308 309 310 313 316 317 317 317 316 316 316 316 318 319 320 321 322 323 323 323 323
266 268 269 270 272 273 275 276 277 277 278 279 281 282 283 285 286 287 287 288 289 290 291 292 293 294 295 296 297 299 299 300 301 302 302 302 300 299 297 295 294 292 291 289 289 289 291 292 294 295 295 295 296 297 297 298 300 303 304 304 303 303 304 305 306 308 310 313 314 314 314 314 314 314 313 314 316 317 318 320 321 322 322 321 321
267 269 270 271 272 273 274 275 276 277 278 279 281 282 284 285 286 286 287 288 289 290 291 292 293 295 296 297 298 299 300 300 301 302 301 300 299 297 297 295 294 291 289 288 287 288 288 289 291 292 293 293 295 296 296 297 299 301 302 301 300 300 302 303 305 308 310 311 312 311 311 312 312 311 312 313 315 316 316 317 318 319 319 318 318
268 269 270 271 272 273 274 275 276 277 278 280 281 282 283 284 284 286 287 288 289 291 292 293 295 296 297 298 299 299 299 300 301 301 301 300 299 298 297 296 293 291 288 287 287 287 287 288 289 290 292 293 294 295 295 296 299 300 299 298 297 298 300 302 305 307 309 309 308 308 309 309 309 309 310 312 314 314 315 316 317 317 317 316 315
268 269 270 270 271 273 274 275 276 277 278 280 281 282 282 283 284 286 287 288 290 292 293 295 296 297 298 298 298 298 299 300 301 301 301 300 300 300 298 296 293 290 287 286 286 286 286 287 288 289 291 292 293 293 294 296 297 297 295 294 295 297 299 302 305 305 305 305 305 306 307 307 307 308 309 311 312 312 313 314 315 315 315 314 313
269 269 270 271 272 273 274 275 276 277 279 280 280 281 282 284 285 286 288 289 291 293 294 296 296 297 297 297 297 298 299 300 300 301 301 302 301 300 299 297 293 290 288 287 287 287 287 288 289 290 291 291 291 292 294 295 295 293 292 293 294 296 299 301 303 302 302 302 303 304 305 305 306 307 308 309 310 310 310 311 312 312 311 310 309
270 270 271 271 272 273 274 275 277 278 279 280 280 281 283 284 286 287 289 290 292 293 294 295 295 295 296 296 297 298 299 300 300 301 302 303 302 301 299 297 294 291 290 289 289 288 289 289 290 290 290 291 291 292 292 292 291 290 290 292 294 296 298 300 300 300 300 300 301 302 303 303 304 305 306 307 307 307 308 309 310 309 308 306 306
270 271 271 272 273 274 274 275 276 277 278 279 280 282 283 284 286 288 289 291 292 293 293 294 294 294 295 296 297 298 298 300 301 303 303 303 302 301 299 296 293 291 290 289 289 289 289 289 289 290 290 290 290 290 289 288 288 288 290 292 293 295 297 297 297 298 299 299 300 301 302 302 302 303 304 304 305 305 306 307 307 306 304 303 302
Height
10690 10691 10690 10691 10691 10691 10691 10691 10691 10690 10689 10688 10687 10685 10683 10682 10681 10680 10679 10677 10676 10674 10672 10671 10668 10666 10664 10662 10659 10657 10654 10652 10649 10646 10643 10640 10637 10634 10631 10628 10625 10623 10619 10616 10612 10607 10603 10598 10594 10590 10585 10581 10577 10572 10567 10562 10557 10552 10546 10541 10535 10530 10524 10518 10511 10505 10498 10493 10487 10480 10472 10464 10457 10450 10443 10436 10429 10421 10412 10405 10400 10395 10391 10387 10383
10685 10685 10685 10685 10685 10686 10686 10685 10685 10684 10683 10683 10681 10679 10678 10677 10676 10675 10674 10673 10671 10669 10668 10666 10664 10662 10659 10657 10654 10652 10649 10646 10644 10641 10638 10635 10632 10629 10626 10623 10620 10618 10614 10611 10607 10602 10597 10593 10589 10584 10580 10576 10572 10567 10562 10557 10552 10546 10541 10536 10530 10525 10519 10513 10507 10500 10493 10486 10480 10473 10466 10457 10450 10443 10436 10429 10423 10415 10406 10397 10392 10386 10381 10377 10373
10679 10679 10680 10680 10680 10681 10681 10680 10679 10678 10678 10677 10675 10674 10673 10672 10671 10670 10669 10668 10667 10665 10663 10661 10659 10656 10654 10652 10649 10647 10644 10641 10638 10636 10632 10630 10627 10624 10621 10618 10616 10613 10609 10605 10601 10597 10592 10588 10583 10579 10575 10570 10566 10562 10557 10552 10547 10541 10536 10531 10525 10520 10515 10509 10502 10496 10488 10479 10472 10466 10459 10451 10443 10436 10429 10422 10416 10409 10400 10391 10384 10379 10373 10368 10364
10674 10674 10674 10674 10675 10676 10675 10675 10674 10673 10673 10672 10670 10669 10668 10667 10667 10666 10665 10664 10662 10660 10658 10656 10654 10651 10649 10647 10644 10642 10639 10637 10634 10631 10628 10625 10622 10619 10616 10613 10610 10607 10604 10600 10596 10591 10587 10583 10578 10574 10569 10565 10561 10557 10552 10547 10542 10536 10531 10525 10520 10514 10509 10503 10496 10489 10482 10473 10465 10458 10452 10445 10437 10429 10423 10416 10409 10402 10394 10384 10376 10371 10364 10358 10355
10668 10668 10669 10669 10670 10670 10670 10670 10669 10668 10668 10666 10665 10664 10663 10663 10662 10661 10661 10659 10657 10655 10653 10650 10648 10646 10644 10642 10639 10637 10635 10632 10629 10626 10623 10620 10617 10614 10611 10608 10605 10602 10598 10595 10591 10586 10582 10578 10573 10568 10564 10560 10555 10551 10546 10541 10536 10531 10525 10519 10514 10508 10502 10495 10489 10481 10474 10466 10458 10451 10444 10438 10430 10422 10415 10409 10402 10395 10388 10377 10369 10364 10358 10351 10346
10663 10663 10663 10664 10665 10665 10665 10664 10664 10663 10662 10662 10661 10659 10659 10658 10658 10657 10656 10654 10652 10650 10648 10646 10643 10641 10639 10637 10635 10633 10630 10628 10625 10621 10618 10615 10612 10610 10606 10603 10600 10597 10594 10590 10585 10581 10577 10572 10568 10563 10559 10554 10550 10546 10541 10535 10530 10525 10519 10514 10508 10501 10494 10487 10480 10473 10466 10458 10451 10443 10436 10430 10423 10415 10408 10402 10396 10390 10384 10374 10363 10356 10351 10345 10340
10657 10658 10659 10659 10660 10660 10660 10659 10659 10658 10658 10657 10656 10655 10654 10654 10653 10652 10651 10649 10647 10645 10643 10641 10638 10636 10634 10632 10630 10628 10626 10623 10620 10616 10613 10610 10607 10605 10601 10598 10595 10592 10588 10584 10580 10576 10571 10567 10562 10558 10554 10549 10545 10540 10535 10530 10524 10519 10513 10507 10501 10494 10486 10479 10471 10465 10458 10451 10444 10436 10429 10422 10416 10409 10402 10395 10389 10383 10378 10371 10361 10352 10345 10338 10334
10653 10653 10654 10654 10655 10655 10655 10654 10654 10653 10653 10653 10652 10651 10650 10649 10648 10647 10646 10644 10643 10641 10639 10637 10634 10631 10629 10627 10625 10623 10621 10619 10615 10611 10608 10605 10602 10599 10596 10593 10589 10586 10583 10579 10575 10571 10566 10561 10557 10553 10548 10544 10539 10534 10529 10524 10518 10513 10507 10500 10493 10486 10479 10472 10465 10457 10450 10444 10437 10429 10421 10415 10409 10403 10396 10390 10384 10377 10371 10365 10358 10350 10342 10334 10328
10648 10648 10649 10649 10649 10650 10650 10649 10649 10649 10649 10648 10648 10647 10646 10644 10642 10641 10641 10640 10639 10637 10635 10632 10629 10628 10626 10623 10620 10618 10616 10613 10609 10606 10602 10600 10597 10594 10590 10587 10583 10580 10577 10573 10569 10565 10560 10556 10551 10547 10543 10538 10533 10528 10523 10518 10512 10505 10499 10492 10486 10479 10472 10466 10458 10451 10443 10436 10430 10423 10414 10408 10403 10398 10392 10385 10379 10373 10367 10359 10352 10344 10337 10330 10323
10643 10643 10644 10644 10644 10644 10644 10644 10645 10645 10645 10644 10643 10642 10641 10638 10637 10637 10636 10636 10635 10634 10632 10629 10626 10624 10621 10618 10615 10613 10610 10606 10603 10601 10598 10594 10591 10588 10585 10582 10578 10575 10571 10568 10564 10560 10555 10551 10546 10542 10538 10533 10528 10522 10517 10511 10505 10499 10492 10486 10480 10473 10466 10459 10451 10444 10436 10429 10423 10417 10410 10403 10398 10394 10388 10381 10374 10368 10362 10355 10347 10339 10332 10327 10321
10638 10639 10639 10639 10639 10639 10639 10640 10641 10641 10640 10639 10639 10638 10636 10633 10632 10633 10632 10631 10631 10630 10629 10627 10623 10619 10616 10613 10611 10609 10605 10601 10598 10596 10592 10589 10586 10583 10579 10576 10572 10569 10566 10562 10558 10554 10550 10546 10541 10537 10532 10527 10522 10516 10511 10506 10500 10494 10487 10481 10474 10468 10461 10454 10446 10438 10431 10424 10417 10411 10405 10399 10394 10388 10383 10377 10370 10363 10356 10349 10342 10335 10328 10324 10320
10633 10633 10633 10634 10634 10635 10635 10636 10637 10636 10635 10635 10634 10634 10633 10629 10627 10628 10628 10626 10624 10624 10624 10623 10620 10616 10613 10610 10607 10605 10601 10598 10594 10591 10587 10584 10581 10577 10574 10571 10567 10564 10560 10556 10552 10549 10545 10540 10536 10531 10526 10521 10516 10511 10506 10500 10495 10489 10483 10476 10469 10463 10456 10450 10442 10435 10428 10420 10413 10406 10400 10394 10389 10383 10379 10373 10366 10359 10352 10344 10336 10330 10324 10319 10315
10628 10628 10628 10630 10631 10631 10631 10632 10631 10631 10630 10630 10629 10629 10628 10626 10623 10623 10622 10620 10618 10617 10617 10616 10614 10612 10609 10606 10602 10600 10597 10594 10590 10587 10583 10580 10576 10573 10569 10566 10562 10558 10554 10551 10547 10543 10539 10535 10530 10525 10520 10515 10510 10505 10500 10495 10489 10484 10478 10471 10464 10457 10450 10443 10436 10430 10423 10416 10409 10402 10396 10390 10384 10378 10373 10369 10363 10356 10349 10341 10332 10325 10318 10312 10308
10623 10623 10624 10625 10626 10626 10627 10627 10626 10626 10625 10625 10624 10623 10622 10621 10619 10618 10617 10615 10613 10612 10610 10609 10607 10605 10604 10600 10597 10594 10592 10589 10586 10582 10579 10575 10572 10568 10564 10560 10556 10552 10549 10545 10541 10537 10533 10529 10524 10519 10514 10509 10504 10500 10495 10489 10484 10478 10472 10466 10459 10452 10444 10438 10431 10425 10419 10412 10405 10398 10391 10384 10378 10373 10368 10363 10359 10354 10348 10339 10330 10321 10313 10306 10302
10618 10619 10619 10620 10620 10621 10622 10621 10621 10621 10620 10620 10619 10617 10616 10615 10614 10613 10612 10610 10609 10607 10605 10603 10601 10599 10598 10595 10592 10589 10586 10583 10580 10577 10574 10570 10566 10562 10558 10554 10550 10546 10543 10539 10535 10531 10527 10523 10518 10513 10508 10503 10498 10494 10488 10483 10477 10472 10466 10459 10453 10446 10438 10431 10426 10420 10413 10407 10401 10394 10386 10379 10372 10367 10363 10359 10355 10349 10342 10333 10325 10317 10310 10303 10297
10613 10614 10615 10615 10615 10615 10616 10616 10616 10615 10615 10615 10613 10612 10611 10610 10609 10608 10606 10605 10604 10602 10600 10598 10596 10594 10592 10590 10587 10584 10580 10578 10575 10571 10568 10564 10560 10556 10552 10549 10545 10541 10537 10533 10529 10526 10521 10517 10512 10507 10502 10497 10492 10487 10482 10476 10471 10465 10459 10452 10445 10439 10431 10425 10419 10413 10406 10399 10393 10387 10379 10372 10365 10361 10356 10352 10348 10342 10335 10327 10320 10314 10308 10302 10295
10608 10609 10610 10610 10610 10610 10610 10610 10610 10609 10609 10609 10608 10607 10606 10605 10604 10603 10601 10600 10598 10596 10595 10593 10591 10589 10587 10584 10581 10578 10575 10572 10569 10566 10562 10558 10554 10550 10546 10543 10539 10535 10532 10528 10524 10520 10515 10511 10506 10500 10495 10490 10485 10480 10475 10469 10464 10457 10451 10444 10437 10431 10424 10418 10412 10406 10400 10394 10387 10379 10372 10365 10358 10353 10347 10342 10339 10336 10331 10326 10319 10313 10307 10301 10295
10603 10604 10604 10605 10605 10605 10605 10605 10604 10604 10604 10603 10602 10601 10601 10600 10599 10597 10596 10595 10593 10591 10590 10588 10586 10584 10582 10579 10576 10573 10570 10567 10563 10560 10556 10552 10548 10544 10540 10537 10533 10529 10526 10522 10518 10514 10509 10505 10500 10494 10489 10484 10479 10474 10468 10462 10457 10450 10443 10437 10430 10424 10418 10412 10405 10399 10393 10387 10380 10373 10366 10359 10352 10346 10340 10336 10333 10331 10328 10324 10318 10311 10305 10299 10294
10598 10598 10599 10599 10599 10599 10599 10599 10599 10599 10599 10598 10597 10596 10595 10594 10593 10592 10591 10590 10588 10586 10584 10583 10581 10578 10576 10573 10570 10567 10564 10561 10558 10554 10550 10546 10542 10538 10534 10531 10527 10524 10520 10516 10512 10507 10503 10498 10493 10488 10483 10478 10472 10467 10461 10455 10449 10443 10436 10429 10423 10417 10411 10406 10401 10394 10387 10382 10376 10369 10362 10355 10349 10343 10338 10334 10330 10326 10323 10320 10315 10309 10303 10296 10291
10593 10593 10593 10593 10594 10594 10594 10594 10594 10594 10593 10593 10592 10591 10589 10588 10588 10587 10586 10584 10583 10581 10579 10577 10575 10572 10569 10567 10564 10560 10558 10555 10552 10548 10544 10540 10537 10533 10529 10525 10522 10518 10513 10510 10506 10501 10496 10492 10487 10482 10476 10471 10465 10459 10454 10448 10442 10435 10429 10422 10416 10410 10405 10400 10395 10390 10384 10378 10373 10367 10361 10354 10348 10342 10336 10331 10326 10321 10317 10314 10310 10305 10300 10294 10288
10587 10587 10587 10588 10588 10588 10588 10588 10588 10588 10588 10587 10586 10585 10584 10583 10582 10581 10580 10579 10578 10576 10573 10571 10568 10566 10563 10561 10557 10554 10551 10549 10545 10542 10538 10535 10531 10527 10523 10519 10515 10512 10507 10504 10500 10495 10490 10485 10480 10475 10470 10464 10458 10452 10446 10441 10435 10428 10422 10417 10411 10405 10400 10395 10390 10385 10380 10375 10370 10364 10358 10351 10345 10339 10333 10327 10322 10317 10312 10308 10305 10301 10296 10293 10287
10580 10581 10582 10582 10582 10582 10583 10582 10583 10583 10582 10581 10581 10580 10578 10577 10576 10575 10574 10573 10572 10570 10567 10564 10562 10560 10557 10554 10551 10547 10545 10543 10539 10536 10532 10529 10525 10522 10517 10513 10509 10505 10501 10497 10493 10489 10484 10479 10474 10469 10463 10457 10451 10444 10438 10433 10428 10422 10416 10411 10405 10400 10396 10391 10386 10381 10376 10371 10366 10361 10355 10348 10342 10336 10331 10325 10319 10314 10309 10304 10300 10296 10292 10289 10285
10574 10575 10576 10576 10577 10577 10577 10577 10577 10577 10576 10576 10575 10574 10573 10572 10571 10569 10568 10567 10566 10564 10561 10558 10556 10554 10551 10548 10545 10541 10538 10535 10533 10529 10526 10523 10519 10516 10511 10507 10503 10499 10495 10491 10486 10482 10477 10472 10467 10462 10456 10450 10444 10437 10431 10426 10421 10415 10410 10405 10400 10395 10391 10386 10382 10377 10372 10368 10363 10357 10351 10345 10339 10334 10328 10323 10317 10312 10307 10302 10297 10292 10288 10284 10281
10568 10569 10570 10571 10571 10571 10571 10572 10572 10571 10571 10570 10569 10568 10568 10567 10566 10564 10562 10560 10560 10559 10556 10553 10550 10548 10545 10542 10539 10536 10532 10529 10526 10523 10519 10516 10512 10509 10505 10501 10497 10492 10488 10484 10480 10475 10470 10465 10461 10455 10449 10443 10437 10431 10425 10420 10415 10410 10404 10399 10395 10390 10386 10382 10378 10373 10369 10364 10359 10353 10348 10342 10337 10331 10326 10322 10317 10311 10305 10300 10295 10289 10284 10280 10277
10562 10564 10564 10564 10565 10565 10566 10566 10565 10565 10565 10564 10563 10563 10562 10562 10560 10558 10556 10555 10554 10552 10549 10546 10543 10541 10539 10536 10532 10529 10526 10523 10519 10516 10513 10509 10505 10502 10498 10494 10490 10486 10482 10477 10472 10468 10463 10459 10454 10448 10442 10436 10431 10425 10419 10415 10410 10404 10399 10395 10391 10386 10382 10378 10373 10369 10365 10360 10356 10351 10345 10339 10334 10329 10324 10320 10315 10310 10304 10298 10293 10288 10282 10276 10272
10556 10558 10558 10558 10558 10559 10560 10559 10559 10559 10559 10558 10558 10557 10556 10556 10554 10552 10550 10549 10547 10545 10543 10540 10537 10535 10532 10529 10526 10523 10520 10516 10513 10509 10506 10503 10499 10495 10492 10488 10484 10480 10475 10470 10466 10461 10457 10452 10447 10441 10435 10430 10425 10419 10414 10409 10404 10399 10394 10390 10386 10382 10378 10374 10369 10365 10361 10357 10353 10348 10342 10337 10332 10327 10323 10318 10314 10309 10303 10298 10293 10289 10283 10276 10271
10550 10551 10551 10551 10552 10553 10554 10553 10553 10553 10552 10552 10552 10551 10550 10549 10547 10545 10544 10542 10540 10539 10537 10534 10531 10528 10525 10522 10519 10516 10513 10510 10506 10503 10499 10496 10493 10489 10485 10481 10477 10473 10468 10464 10459 10454 10450 10445 10439 10434 10428 10424 10419 10414 10409 10404 10399 10394 10390 10386 10382 10377 10374 10370 10366 10362 10358 10354 10350 10345 10340 10335 10330 10325 10320 10316 10311 10307 10303 10298 10293 10289 10284 10279 10272
10544 10544 10544 10544 10546 10547 10547 10547 10546 10546 10546 10546 10545 10544 10544 10542 10541 10539 10537 10535 10534 10532 10530 10527 10524 10521 10518 10515 10512 10509 10506 10503 10499 10496 10493 10490 10487 10483 10479 10474 10470 10466 10461 10457 10452 10447 10443 10438 10432 10427 10422 10417 10413 10409 10403 10398 10394 10390 10386 10382 10378 10374 10371 10367 10363 10359 10355 10352 10348 10343 10337 10332 10327 10323 10319 10314 10309 10305 10301 10297 10292 10288 10284 10280 10275
10537 10537 10537 10538 10540 10541 10541 10540 10540 10540 10540 10540 10539 10538 10537 10536 10534 10532 10530 10528 10526 10525 10522 10520 10517 10514 10511 10508 10505 10502 10499 10495 10492 10489 10487 10484 10480 10476 10472 10468 10464 10459 10454 10449 10445 10440 10436 10431 10425 10420 10415 10411 10408 10403 10398 10393 10390 10386 10382 10378 10374 10370 10367 10364 10360 10356 10353 10349 10345 10340 10335 10330 10325 10321 10317 10312 10308 10303 10299 10296 10291 10287 10284 10280 10276
10529 10530 10531 10533 10534 10534 10535 10534 10534 10534 10533 10533 10532 10531 10530 10529 10527 10525 10523 10521 10519 10517 10515 10512 10509 10507 10504 10501 10498 10495 10492 10489 10485 10483 10481 10478 10474 10469 10465 10461 10457 10452 10447 10442 10438 10433 10428 10423 10418 10413 10409 10405 10402 10398 10393 10389 10386 10382 10378 10374 10370 10367 10363 10360 10356 10353 10349 10345 10341 10337 10332 10327 10323 10319 10315 10311 10306 10301 10297 10294 10290 10287 10283 10280 10276
10523 10524 10525 10527 10528 10528 10528 10528 10527 10527 10526 10525 10525 10524 10523 10522 10520 10518 10516 10514 10512 10510 10507 10505 10502 10500 10497 10494 10491 10487 10485 10482 10479 10476 10474 10471 10467 10463 10459 10455 10450 10446 10441 10435 10431 10426 10421 10416 10411 10406 10402 10399 10396 10393 10388 10385 10381 10378 10375 10371 10367 10363 10359 10355 10352 10349 10345 10341 10338 10334 10329 10324 10320 10317 10313 10309 10305 10300 10296 10292 10289 10286 10282 10279 10276
10517 10518 10519 10521 10521 10522 10522 10521 10521 10520 10519 10518 10517 10516 10516 10514 10512 10510 10509 10507 10505 10503 10500 10498 10495 10492 10490 10487 10483 10480 10478 10476 10472 10470 10467 10464 10460 10456 10452 10448 10444 10439 10434 10428 10424 10419 10415 10410 10405 10400 10396 10394 10391 10387 10384 10380 10377 10374 10371 10367 10363 10360 10356 10352 10348 10345 10342 10338 10334 10331 10326 10322 10317 10314 10311 10308 10304 10300 10295 10291 10288 10285 10281 10278 10274
10511 10511 10513 10514 10515 10515 10515 10514 10514 10514 10513 10512 10511 10509 10508 10507 10505 10503 10502 10500 10498 10495 10493 10490 10488 10485 10483 10480 10477 10473 10471 10469 10466 10463 10460 10456 10452 10448 10445 10441 10437 10432 10427 10421 10416 10412 10408 10404 10399 10394 10391 10388 10385 10382 10378 10375 10372 10369 10367 10363 10360 10356 10352 10348 10345 10342 10339 10335 10331 10328 10324 10320 10316 10312 10309 10306 10303 10299 10295 10291 10287 10284 10280 10277 10274
10504 10505 10506 10507 10508 10508 10508 10507 10507 10507 10506 10505 10504 10502 10501 10500 10498 10496 10494 10493 10491 10488 10485 10482 10480 10478 10476 10473 10470 10466 10464 10462 10459 10456 10453 10449 10444 10441 10437 10434 10429 10424 10419 10414 10409 10405 10402 10398 10393 10389 10386 10383 10380 10376 10374 10370 10367 10365 10362 10359 10356 10352 10349 10345 10341 10339 10335 10332 10328 10325 10322 10317 10313 10310 10307 10304 10301 10298 10294 10290 10286 10283 10280 10276 10273
10497 10498 10499 10501 10501 10501 10501 10500 10500 10499 10498 10497 10496 10495 10493 10492 10490 10488 10487 10485 10483 10481 10478 10475 10473 10471 10468 10466 10463 10460 10457 10454 10451 10448 10445 10441 10437 10433 10430 10426 10422 10417 10412 10407 10403 10399 10395 10391 10387 10383 10381 10378 10375 10371 10369 10366 10363 10360 10357 10355 10352 10348 10345 10341 10338 10335 10332 10329 10325 10322 10319 10315 10310 10307 10305 10302 10300 10296 10293 10289 10285 10282 10279 10276 10272
10491 10492 10493 10494 10494 10494 10493 10493 10492 10491 10490 10489 10488 10486 10485 10484 10482 10481 10479 10477 10475 10473 10471 10468 10466 10463 10461 10458 10456 10453 10450 10447 10444 10441 10437 10434 10430 10426 10422 10418 10414 10410 10405 10400 10396 10392 10389 10385 10381 10378 10375 10373 10369 10366 10364 10361 10358 10355 10353 10350 10348 10344 10341 10337 10334 10331 10328 10325 10322 10319 10316 10312 10308 10304 10302 10299 10297 10294 10290 10287 10284 10281 10278 10274 10272
10485 10486 10486 10486 10487 10487 10486 10485 10484 10483 10482 10481 10479 10478 10477 10476 10475 10473 10471 10469 10468 10466 10464 10462 10459 10456 10453 10451 10449 10446 10442 10439 10436 10433 10429 10425 10423 10419 10415 10410 10406 10401 10397 10393 10389 10386 10382 10379 10375 10373 10370 10368 10364 10361 10359 10356 10354 10351 10348 10346 10343 10340 10337 10334 10331 10328 10325 10322 10319 10316 10313 10309 10305 10302 10299 10297 10294 10291 10289 10286 10283 10279 10276 10273 10270
10478 10479 10479 10479 10479 10479 10479 10478 10476 10475 10474 10472 10472 10471 10470 10468 10467 10465 10464 10462 10460 10458 10456 10455 10452 10448 10445 10443 10441 10438 10435 10432 10428 10424 10420 10417 10414 10411 10407 10403 10398 10393 10389 10385 10382 10379 10376 10373 10370 10367 10365 10363 10359 10356 10354 10352 10349 10347 10344 10342 10339 10336 10333 10330 10327 10324 10321 10318 10316 10313 10310 10306 10302 10299 10297 10295 10292 10289 10287 10284 10281 10278 10275 10272 10269
10471 10472 10472 10473 10473 10472 10471 10470 10469 10467 10466 10465 10464 10463 10462 10460 10459 10458 10456 10455 10452 10450 10449 10448 10445 10441 10438 10436 10432 10429 10427 10425 10420 10416 10413 10409 10406 10403 10400 10395 10391 10386 10382 10378 10375 10372 10369 10366 10364 10362 10360 10357 10354 10351 10349 10347 10344 10342 10340 10338 10335 10332 10329 10326 10323 10320 10317 10315 10312 10310 10308 10304 10300 10296 10294 10293 10290 10287 10285 10282 10279 10276 10273 10271 10268
10465 10466 10466 10465 10465 10464 10463 10461 10460 10460 10459 10458 10457 10456 10454 10452 10451 10450 10448 10447 10444 10442 10440 10440 10437 10434 10431 10427 10424 10422 10420 10417 10411 10407 10404 10401 10397 10394 10391 10387 10383 10379 10375 10371 10368 10366 10363 10360 10358 10356 10354 10352 10349 10346 10344 10342 10340 10338 10336 10333 10331 10328 10325 10322 10319 10316 10314 10311 10309 10307 10305 10302 10298 10294 10291 10290 10287 10285 10282 10280 10278 10275 10272 10269 10267
10458 10458 10458 10457 10457 10456 10455 10454 10453 10452 10451 10450 10449 10448 10446 10444 10443 10442 10440 10439 10436 10434 10432 10432 10430 10427 10423 10419 10415 10414 10412 10408 10403 10399 10396 10392 10388 10385 10382 10379 10375 10371 10368 10365 10362 10359 10356 10354 10352 10351 10349 10346 10343 10341 10339 10337 10335 10333 10331 10329 10326 10324 10321 10319 10315 10312 10310 10307 10305 10304 10302 10300 10296 10292 10289 10287 10284 10282 10280 10278 10275 10273 10270 10267 10265
10451 10451 10450 10449 10449 10448 10447 10446 10446 10445 10443 10442 10441 10440 10438 10436 10435 10433 10432 10430 10429 10426 10424 10423 10422 10419 10415 10410 10407 10405 10404 10399 10395 10392 10388 10384 10380 10377 10374 10370 10367 10364 10361 10358 10355 10352 10349 10347 10346 10345 10343 10341 10338 10336 10334 10332 10330 10328 10326 10324 10321 10319 10317 10315 10312 10308 10306 10303 10302 10300 10298 10296 10293 10290 10286 10283 10281 10279 10277 10274 10272 10270 10268 10265 10263
10442 10443 10443 10442 10441 10440 10440 10439 10438 10436 10435 10433 10432 10431 10430 10428 10427 10426 10424 10423 10421 10418 10416 10415 10413 10410 10407 10402 10399 10397 10395 10390 10386 10384 10380 10376 10373 10368 10365 10362 10359 10356 10353 10351 10348 10345 10343 10341 10339 10338 10337 10335 10333 10331 10329 10327 10325 10323 10321 10319 10317 10314 10312 10310 10307 10305 10302 10300 10298 10296 10294 10292 10290 10287 10283 10280 10278 10276 10274 10272 10269 10267 10265 10263 10261
10434 10435 10435 10433 10433 10432 10431 10430 10429 10428 10426 10425 10424 10423 10421 10420 10419 10418 10416 10415 10413 10411 10409 10407 10404 10402 10398 10393 10390 10388 10385 10381 10377 10374 10371 10367 10364 10360 10356 10354 10351 10349 10346 10343 10340 10338 10336 10334 10333 10331 10330 10328 10327 10325 10323 10321 10320 10318 10316 10314 10312 10310 10307 10305 10302 10300 10298 10296 10295 10293 10290 10288 10286 10283 10280 10278 10275 10272 10270 10268 10266 10264 10261 10260 10258
10426 10426 10426 10425 10425 10424 10423 10422 10421 10420 10418 10417 10416 10414 10413 10412 10411 10409 10407 10406 10404 10403 10401 10399 10396 10393 10390 10385 10381 10378 10375 10371 10368 10365 10362 10358 10355 10351 10348 10345 10343 10341 10338 10336 10333 10331 10330 10328 10327 10325 10323 10322 10321 10319 10317 10316 10315 10313 10312 10310 10307 10305 10303 10300 10298 10295 10294 10292 10291 10289 10286 10284 10282 10279 10277 10275 10272 10270 10267 10265 10263 10261 10258 10257 10255
10417 10417 10417 10417 10417 10416 10415 10414 10413 10411 10410 10409 10408 10407 10405 10404 10402 10401 10399 10397 10396 10395 10393 10391 10388 10385 10381 10376 10372 10369 10366 10362 10359 10356 10353 10350 10347 10343 10340 10338 10335 10333 10331 10328 10327 10325 10324 10323 10321 10319 10318 10316 10315 10314 10312 10311 10309 10308 10307 10305 10302 10300 10298 10296 10293 10291 10289 10288 10286 10284 10282 10280 10278 10275 10273 10271 10268 10266 10264 10262 10260 10258 10256 10254 10253
10409 10409 10409 10409 10409 10408 10407 10406 10404 10403 10402 10401 10400 10399 10397 10395 10394 10393 10391 10389 10388 10386 10384 10382 10379 10376 10372 10368 10364 10361 10358 10355 10351 10348 10345 10342 10339 10336 10333 10330 10327 10325 10323 10321 10320 10319 10318 10316 10315 10314 10312 10310 10309 10308 10306 10305 10304 10303 10301 10300 10297 10295 10293 10291 10290 10287 10285 10283 10281 10279 10277 10276 10273 10271 10269 10267 10265 10262 10260 10258 10257 10255 10253 10251 10250
10401 10401 10401 10401 10401 10400 10399 10397 10396 10395 10394 10394 10393 10391 10388 10386 10387 10386 10384 10381 10379 10377 10375 10372 10370 10367 10364 10360 10356 10353 10350 10347 10344 10340 10337 10334 10330 10327 10325 10322 10320 10317 10316 10315 10314 10312 10311 10310 10309 10308 10306 10304 10303 10302 10301 10300 10299 10297 10296 10294 10292 10290 10288 10287 10285 10283 10281 10279 10276 10274 10272 10270 10268 10266 10265 10263 10261 10259 10257 10255 10253 10252 10250 10248 10247
10392 10392 10392 10392 10392 10392 10391 10389 10388 10387 10386 10385 10384 10382 10380 10378 10377 10377 10376 10373 10371 10368 10366 10364 10361 10358 10355 10353 10349 10346 10342 10340 10337 10333 10330 10326 10323 10320 10317 10315 10313 10310 10309 10308 10307 10306 10305 10304 10302 10301 10300 10299 10297 10296 10295 10294 10293 10292 10290 10288 10286 10284 10283 10282 10281 10279 10277 10274 10272 10270 10268 10266 10263 10261 10260 10258 10257 10255 10253 10251 10250 10249 10247 10246 10244
10383 10383 10383 10383 10384 10384 10383 10381 10379 10379 10378 10376 10375 10374 10373 10370 10368 10367 10366 10364 10362 10360 10358 10356 10353 10350 10347 10345 10342 10338 10335 10332 10329 10326 10323 10320 10317 10313 10310 10308 10306 10304 10302 10301 10301 10300 10298 10297 10296 10295 10294 10293 10292 10291 10290 10289 10287 10286 10285 10283 10281 10280 10278 10277 10276 10274 10272 10270 10268 10266 10263 10261 10259 10257 10255 10254 10252 10250 10249 10248 10247 10245 10244 10243 10242
10374 10374 10374 10375 10374 10375 10374 10373 10371 10371 10370 10368 10366 10366 10365 10363 10361 10359 10358 10356 10354 10352 10350 10348 10345 10343 10340 10338 10334 10331 10328 10325 10322 10319 10316 10313 10310 10307 10305 10302 10300 10298 10297 10296 10295 10294 10293 10292 10291 10290 10288 10287 10286 10285 10284 10283 10281 10280 10279 10278 10276 10275 10273 10272 10270 10268 10266 10264 10263 10261 10259 10256 10254 10252 10251 10249 10248 10246 10245 10244 10243 10242 10241 10240 10239